Time,TemperatureF,DewpointF,PressureIn,WindDirection,WindDirectionDegrees,WindSpeedMPH,WindSpeedGustMPH,Humidity,HourlyPrecipIn,Conditions,Clouds,dailyrainin,SoftwareType,DateUTC
2013-01-14 00:04:00,46.0,45.0,29.95,WSW,239,0.0,-999.0,98,-99.99,,,-99.99,,2013-01-14 05:04:00,
2013-01-14 00:12:00,46.0,45.0,29.95,WSW,239,0.0,-999.0,98,-99.99,,,-99.99,,2013-01-14 05:12:00,
2013-01-14 00:22:00,46.0,45.0,29.95,WSW,239,0.0,-999.0,98,-99.99,,,-99.99,,2013-01-14 05:22:00,
2013-01-14 00:33:00,46.0,45.0,29.94,WSW,239,0.0,-999.0,98,-99.99,,,-99.99,,2013-01-14 05:33:00,
2013-01-14 00:43:00,46.0,45.0,29.94,WSW,239,0.0,-999.0,98,-99.99,,,-99.99,,2013-01-14 05:43:00,
2013-01-14 00:52:00,46.0,45.0,29.94,WSW,239,0.0,-999.0,98,-99.99,,,-99.99,,2013-01-14 05:52:00,
2013-01-14 01:03:00,46.0,45.0,29.94,WSW,239,0.0,-999.0,98,-99.99,,,-99.99,,2013-01-14 06:03:00,
2013-01-14 01:12:00,46.0,45.0,29.94,WSW,239,0.0,-999.0,98,-99.99,,,-99.99,,2013-01-14 06:12:00,
2013-01-14 01:23:00,47.0,46.0,29.95,WSW,239,0.0,-999.0,98,-99.99,,,-99.99,,2013-01-14 06:23:00,
2013-01-14 01:33:00,47.0,46.0,29.95,WSW,239,0.0,-999.0,98,-99.99,,,-99.99,,2013-01-14 06:33:00,
2013-01-14 01:43:00,47.0,46.0,29.95,WSW,239,0.0,-999.0,98,-99.99,,,-99.99,,2013-01-14 06:43:00,
2013-01-14 01:52:00,47.0,46.0,29.94,SSW,194,0.0,-999.0,98,-99.99,,,-99.99,,2013-01-14 06:52:00,
2013-01-14 02:02:00,47.0,46.0,29.94,SSW,194,0.0,-999.0,98,-99.99,,,-99.99,,2013-01-14 07:02:00,
2013-01-14 02:12:00,47.0,46.0,29.94,SSW,194,0.0,-999.0,98,-99.99,,,-99.99,,2013-01-14 07:12:00,
2013-01-14 02:23:00,46.0,45.0,29.95,SSW,194,0.0,-999.0,98,-99.99,,,-99.99,,2013-01-14 07:23:00,
2013-01-14 02:33:00,46.0,45.0,29.95,SSW,194,0.0,-999.0,98,-99.99,,,-99.99,,2013-01-14 07:33:00,
2013-01-14 02:43:00,46.0,45.0,29.95,SSW,194,0.0,-999.0,98,-99.99,,,-99.99,,2013-01-14 07:43:00,
2013-01-14 02:52:00,46.0,45.0,29.96,SSW,194,0.0,-999.0,98,-99.99,,,-99.99,,2013-01-14 07:52:00,
2013-01-14 03:02:00,46.0,45.0,29.96,SSW,194,0.0,-999.0,98,-99.99,,,-99.99,,2013-01-14 08:02:00,
2013-01-14 03:12:00,46.0,45.0,29.96,SSW,194,0.0,-999.0,98,-99.99,,,-99.99,,2013-01-14 08:12:00,
2013-01-14 03:22:00,46.0,45.0,29.95,SSW,194,0.0,-999.0,98,-99.99,,,-99.99,,2013-01-14 08:22:00,
2013-01-14 03:33:00,46.0,45.0,29.94,SSW,193,0.0,-999.0,98,-99.99,,,-99.99,,2013-01-14 08:33:00,
2013-01-14 03:42:00,46.0,45.0,29.94,SSW,193,0.0,-999.0,98,-99.99,,,-99.99,,2013-01-14 08:42:00,
2013-01-14 03:53:00,46.0,45.0,29.95,SSW,193,0.0,-999.0,98,-99.99,,,-99.99,,2013-01-14 08:53:00,
2013-01-14 04:03:00,45.0,44.0,29.95,SSW,194,0.0,-999.0,98,-99.99,,,-99.99,,2013-01-14 09:03:00,
2013-01-14 04:12:00,45.0,44.0,29.95,SSW,194,0.0,-999.0,98,-99.99,,,-99.99,,2013-01-14 09:12:00,
2013-01-14 04:23:00,45.0,44.0,29.96,SSW,193,0.0,-999.0,98,-99.99,,,-99.99,,2013-01-14 09:23:00,
2013-01-14 04:33:00,45.0,44.0,29.95,SSW,194,0.0,-999.0,98,-99.99,,,-99.99,,2013-01-14 09:33:00,
2013-01-14 04:43:00,45.0,44.0,29.95,SSW,194,0.0,-999.0,98,-99.99,,,-99.99,,2013-01-14 09:43:00,
2013-01-14 04:52:00,45.0,44.0,29.93,SSW,193,0.0,-999.0,98,-99.99,,,-99.99,,2013-01-14 09:52:00,
2013-01-14 05:02:00,45.0,44.0,29.92,SSW,194,0.0,-999.0,98,-99.99,,,-99.99,,2013-01-14 10:02:00,
2013-01-14 05:12:00,45.0,44.0,29.92,SSW,194,0.0,-999.0,98,-99.99,,,-99.99,,2013-01-14 10:12:00,
2013-01-14 05:23:00,46.0,45.0,29.91,SSW,194,0.0,-999.0,98,-99.99,,,-99.99,,2013-01-14 10:23:00,
2013-01-14 05:32:00,46.0,45.0,29.89,SSW,193,0.0,-999.0,98,-99.99,,,-99.99,,2013-01-14 10:32:00,
2013-01-14 05:43:00,46.0,45.0,29.89,SSW,193,0.0,-999.0,98,-99.99,,,-99.99,,2013-01-14 10:43:00,
2013-01-14 05:52:00,46.0,45.0,29.87,SE,130,1.0,-999.0,98,-99.99,,,-99.99,,2013-01-14 10:52:00,
2013-01-14 06:02:00,47.0,46.0,29.85,South,182,2.0,-999.0,98,-99.99,,,-99.99,,2013-01-14 11:02:00,
2013-01-14 06:12:00,47.0,46.0,29.85,South,182,2.0,-999.0,98,-99.99,,,-99.99,,2013-01-14 11:12:00,
2013-01-14 06:22:00,47.0,46.0,29.91,West,267,3.0,-999.0,98,-99.99,,,-99.99,,2013-01-14 11:22:00,
2013-01-14 06:33:00,47.0,46.0,29.91,West,267,3.0,-999.0,98,-99.99,,,-99.99,,2013-01-14 11:33:00,
2013-01-14 06:43:00,47.0,46.0,29.91,West,267,3.0,-999.0,98,-99.99,,,-99.99,,2013-01-14 11:43:00,
2013-01-14 06:53:00,48.0,47.0,29.93,WNW,286,1.0,-999.0,98,-99.99,,,-99.99,,2013-01-14 11:53:00,
2013-01-14 07:03:00,48.0,47.0,29.95,WNW,285,0.0,-999.0,98,-99.99,,,-99.99,,2013-01-14 12:03:00,
2013-01-14 07:12:00,48.0,47.0,29.95,WNW,285,0.0,-999.0,98,-99.99,,,-99.99,,2013-01-14 12:12:00,
2013-01-14 07:23:00,48.0,47.0,29.96,WSW,247,1.0,-999.0,98,-99.99,,,-99.99,,2013-01-14 12:23:00,
2013-01-14 07:33:00,48.0,47.0,29.96,WSW,247,0.0,-999.0,98,-99.99,,,-99.99,,2013-01-14 12:33:00,
2013-01-14 07:43:00,48.0,47.0,29.96,WSW,247,0.0,-999.0,98,-99.99,,,-99.99,,2013-01-14 12:43:00,
2013-01-14 07:53:00,48.0,48.0,29.96,SW,215,1.0,-999.0,99,-99.99,,,-99.99,,2013-01-14 12:53:00,
2013-01-14 08:03:00,48.0,48.0,29.97,SW,216,1.0,-999.0,99,-99.99,,,-99.99,,2013-01-14 13:03:00,
2013-01-14 08:13:00,48.0,48.0,29.97,SW,216,1.0,-999.0,99,-99.99,,,-99.99,,2013-01-14 13:13:00,
2013-01-14 08:23:00,48.0,48.0,29.96,West,259,2.0,-999.0,99,-99.99,,,-99.99,,2013-01-14 13:23:00,
2013-01-14 08:33:00,48.0,47.0,29.97,West,259,1.0,-999.0,98,-99.99,,,-99.99,,2013-01-14 13:33:00,
2013-01-14 08:43:00,48.0,47.0,29.97,West,259,1.0,-999.0,98,-99.99,,,-99.99,,2013-01-14 13:43:00,
2013-01-14 08:53:00,49.0,49.0,29.99,West,281,1.0,-999.0,99,-99.99,,,-99.99,,2013-01-14 13:53:00,
2013-01-14 09:03:00,49.0,48.0,30.00,WSW,240,1.0,-999.0,98,-99.99,,,-99.99,,2013-01-14 14:03:00,
2013-01-14 09:13:00,49.0,48.0,30.00,WSW,240,1.0,-999.0,98,-99.99,,,-99.99,,2013-01-14 14:13:00,
2013-01-14 09:23:00,49.0,48.0,30.00,WSW,240,1.0,-999.0,98,-99.99,,,-99.99,,2013-01-14 14:23:00,
2013-01-14 09:33:00,50.0,50.0,30.01,SW,223,0.0,-999.0,99,-99.99,,,-99.99,,2013-01-14 14:33:00,
2013-01-14 09:43:00,50.0,50.0,30.01,SW,223,0.0,-999.0,99,-99.99,,,-99.99,,2013-01-14 14:43:00,
2013-01-14 09:53:00,50.0,50.0,30.01,WNW,288,1.0,-999.0,99,-99.99,,,-99.99,,2013-01-14 14:53:00,
2013-01-14 10:03:00,50.0,50.0,30.02,West,269,1.0,-999.0,99,-99.99,,,-99.99,,2013-01-14 15:03:00,
2013-01-14 10:12:00,50.0,50.0,30.02,West,269,1.0,-999.0,99,-99.99,,,-99.99,,2013-01-14 15:12:00,
2013-01-14 10:23:00,50.0,50.0,30.03,WNW,290,2.0,-999.0,99,-99.99,,,-99.99,,2013-01-14 15:23:00,
2013-01-14 10:33:00,50.0,50.0,30.03,North,350,1.0,-999.0,99,-99.99,,,-99.99,,2013-01-14 15:33:00,
2013-01-14 10:43:00,50.0,50.0,30.03,North,350,1.0,-999.0,99,-99.99,,,-99.99,,2013-01-14 15:43:00,
2013-01-14 10:53:00,50.0,50.0,30.03,NW,308,1.0,-999.0,99,-99.99,,,-99.99,,2013-01-14 15:53:00,
2013-01-14 11:03:00,51.0,50.0,30.04,West,271,1.0,-999.0,98,-99.99,,,-99.99,,2013-01-14 16:03:00,
2013-01-14 11:13:00,51.0,50.0,30.04,West,271,1.0,-999.0,98,-99.99,,,-99.99,,2013-01-14 16:13:00,
2013-01-14 11:23:00,51.0,51.0,30.05,NW,317,1.0,-999.0,99,-99.99,,,-99.99,,2013-01-14 16:23:00,
2013-01-14 11:33:00,51.0,50.0,30.05,WNW,294,1.0,-999.0,98,-99.99,,,-99.99,,2013-01-14 16:33:00,
2013-01-14 11:43:00,51.0,50.0,30.05,WNW,294,1.0,-999.0,98,-99.99,,,-99.99,,2013-01-14 16:43:00,
2013-01-14 11:53:00,51.0,50.0,30.06,NNW,347,1.0,-999.0,98,-99.99,,,-99.99,,2013-01-14 16:53:00,
2013-01-14 12:03:00,51.0,50.0,30.05,WNW,292,1.0,-999.0,97,-99.99,,,-99.99,,2013-01-14 17:03:00,
2013-01-14 12:12:00,51.0,50.0,30.05,WNW,292,1.0,-999.0,97,-99.99,,,-99.99,,2013-01-14 17:12:00,
2013-01-14 12:23:00,51.0,50.0,30.05,North,355,1.0,-999.0,97,-99.99,,,-99.99,,2013-01-14 17:23:00,
2013-01-14 12:33:00,52.0,50.0,30.03,NNW,338,2.0,-999.0,94,-99.99,,,-99.99,,2013-01-14 17:33:00,
2013-01-14 12:43:00,52.0,50.0,30.03,NNW,338,2.0,-999.0,94,-99.99,,,-99.99,,2013-01-14 17:43:00,
2013-01-14 12:53:00,52.0,49.0,30.03,NNW,337,1.0,-999.0,91,-99.99,,,-99.99,,2013-01-14 17:53:00,
2013-01-14 13:03:00,52.0,45.0,30.03,WNW,284,3.0,-999.0,78,-99.99,,,-99.99,,2013-01-14 18:03:00,
2013-01-14 13:13:00,52.0,45.0,30.04,NW,304,3.0,-999.0,78,-99.99,,,-99.99,,2013-01-14 18:13:00,
2013-01-14 13:23:00,52.0,45.0,30.04,NW,304,3.0,-999.0,78,-99.99,,,-99.99,,2013-01-14 18:23:00,
2013-01-14 13:33:00,52.0,44.0,30.04,NW,313,3.0,-999.0,73,-99.99,,,-99.99,,2013-01-14 18:33:00,
2013-01-14 13:43:00,52.0,44.0,30.04,NW,313,3.0,-999.0,73,-99.99,,,-99.99,,2013-01-14 18:43:00,
2013-01-14 13:52:00,51.0,42.0,30.05,NW,310,3.0,-999.0,70,-99.99,,,-99.99,,2013-01-14 18:52:00,
2013-01-14 14:03:00,51.0,43.0,30.04,WNW,302,3.0,-999.0,74,-99.99,,,-99.99,,2013-01-14 19:03:00,
2013-01-14 14:13:00,51.0,43.0,30.04,WNW,302,3.0,-999.0,74,-99.99,,,-99.99,,2013-01-14 19:13:00,
2013-01-14 14:22:00,50.0,43.0,30.05,NNW,340,3.0,-999.0,77,-99.99,,,-99.99,,2013-01-14 19:22:00,
2013-01-14 14:33:00,51.0,42.0,30.06,NNE,23,3.0,-999.0,72,-99.99,,,-99.99,,2013-01-14 19:33:00,
2013-01-14 14:43:00,51.0,42.0,30.06,NNE,23,3.0,-999.0,72,-99.99,,,-99.99,,2013-01-14 19:43:00,
2013-01-14 14:52:00,50.0,41.0,30.08,North,360,2.0,-999.0,71,-99.99,,,-99.99,,2013-01-14 19:52:00,
2013-01-14 15:03:00,50.0,40.0,30.09,NNW,333,2.0,-999.0,69,-99.99,,,-99.99,,2013-01-14 20:03:00,
2013-01-14 15:13:00,50.0,40.0,30.09,NNW,333,2.0,-999.0,69,-99.99,,,-99.99,,2013-01-14 20:13:00,
2013-01-14 15:23:00,49.0,39.0,30.08,NNW,335,3.0,-999.0,69,-99.99,,,-99.99,,2013-01-14 20:23:00,
2013-01-14 15:33:00,49.0,40.0,30.09,North,5,2.0,-999.0,71,-99.99,,,-99.99,,2013-01-14 20:33:00,
2013-01-14 15:43:00,49.0,40.0,30.09,North,5,2.0,-999.0,71,-99.99,,,-99.99,,2013-01-14 20:43:00,
2013-01-14 15:53:00,49.0,40.0,30.09,North,5,3.0,-999.0,72,-99.99,,,-99.99,,2013-01-14 20:53:00,
2013-01-14 16:03:00,48.0,39.0,30.10,North,5,2.0,-999.0,70,-99.99,,,-99.99,,2013-01-14 21:03:00,
2013-01-14 16:13:00,48.0,39.0,30.10,North,5,2.0,-999.0,70,-99.99,,,-99.99,,2013-01-14 21:13:00,
2013-01-14 16:23:00,48.0,39.0,30.11,NNW,340,2.0,-999.0,70,-99.99,,,-99.99,,2013-01-14 21:23:00,
2013-01-14 16:33:00,47.0,37.0,30.11,NNW,347,3.0,-999.0,69,-99.99,,,-99.99,,2013-01-14 21:33:00,
2013-01-14 16:43:00,47.0,37.0,30.11,NNW,347,3.0,-999.0,69,-99.99,,,-99.99,,2013-01-14 21:43:00,
2013-01-14 16:53:00,46.0,36.0,30.11,NNW,331,3.0,-999.0,68,-99.99,,,-99.99,,2013-01-14 21:53:00,
2013-01-14 17:03:00,46.0,36.0,30.10,NNW,346,2.0,-999.0,68,-99.99,,,-99.99,,2013-01-14 22:03:00,
2013-01-14 17:12:00,46.0,36.0,30.10,NNW,346,2.0,-999.0,68,-99.99,,,-99.99,,2013-01-14 22:12:00,
2013-01-14 17:23:00,45.0,35.0,30.10,North,360,3.0,-999.0,67,-99.99,,,-99.99,,2013-01-14 22:23:00,
2013-01-14 17:33:00,45.0,34.0,30.10,NNE,14,1.0,-999.0,65,-99.99,,,-99.99,,2013-01-14 22:33:00,
2013-01-14 17:43:00,45.0,34.0,30.10,NNE,14,1.0,-999.0,65,-99.99,,,-99.99,,2013-01-14 22:43:00,
2013-01-14 17:52:00,44.0,33.0,30.13,NNW,345,1.0,-999.0,66,-99.99,,,-99.99,,2013-01-14 22:52:00,
2013-01-14 18:03:00,44.0,33.0,30.12,NNW,336,1.0,-999.0,65,-99.99,,,-99.99,,2013-01-14 23:03:00,
2013-01-14 18:12:00,44.0,33.0,30.12,NNW,336,1.0,-999.0,65,-99.99,,,-99.99,,2013-01-14 23:12:00,
2013-01-14 18:23:00,44.0,31.0,30.13,North,360,2.0,-999.0,61,-99.99,,,-99.99,,2013-01-14 23:23:00,
2013-01-14 18:33:00,44.0,31.0,30.12,North,350,2.0,-999.0,59,-99.99,,,-99.99,,2013-01-14 23:33:00,
2013-01-14 18:43:00,44.0,31.0,30.12,North,350,2.0,-999.0,59,-99.99,,,-99.99,,2013-01-14 23:43:00,
2013-01-14 18:53:00,43.0,30.0,30.13,NNW,327,0.0,-999.0,61,-99.99,,,-99.99,,2013-01-14 23:53:00,
2013-01-14 19:03:00,43.0,29.0,30.14,NNW,335,3.0,-999.0,57,-99.99,,,-99.99,,2013-01-15 00:03:00,
2013-01-14 19:12:00,43.0,29.0,30.14,NNW,335,3.0,-999.0,57,-99.99,,,-99.99,,2013-01-15 00:12:00,
2013-01-14 19:23:00,43.0,30.0,30.16,WNW,300,1.0,-999.0,59,-99.99,,,-99.99,,2013-01-15 00:23:00,
2013-01-14 19:33:00,43.0,30.0,30.19,WNW,297,1.0,-999.0,60,-99.99,,,-99.99,,2013-01-15 00:33:00,
2013-01-14 19:43:00,43.0,30.0,30.19,WNW,297,1.0,-999.0,60,-99.99,,,-99.99,,2013-01-15 00:43:00,
2013-01-14 19:52:00,42.0,29.0,30.20,WNW,286,3.0,-999.0,60,-99.99,,,-99.99,,2013-01-15 00:52:00,
2013-01-14 20:02:00,42.0,30.0,30.19,WSW,246,2.0,-999.0,61,-99.99,,,-99.99,,2013-01-15 01:02:00,
2013-01-14 20:12:00,42.0,29.0,30.20,NNE,26,1.0,-999.0,60,-99.99,,,-99.99,,2013-01-15 01:12:00,
2013-01-14 20:22:00,42.0,29.0,30.20,NNE,26,1.0,-999.0,60,-99.99,,,-99.99,,2013-01-15 01:22:00,
2013-01-14 20:32:00,42.0,30.0,30.20,North,360,1.0,-999.0,62,-99.99,,,-99.99,,2013-01-15 01:32:00,
2013-01-14 20:43:00,42.0,30.0,30.20,North,360,1.0,-999.0,62,-99.99,,,-99.99,,2013-01-15 01:43:00,
2013-01-14 20:52:00,41.0,29.0,30.19,WNW,300,2.0,-999.0,63,-99.99,,,-99.99,,2013-01-15 01:52:00,
2013-01-14 21:02:00,41.0,30.0,30.20,NE,46,1.0,-999.0,65,-99.99,,,-99.99,,2013-01-15 02:02:00,
2013-01-14 21:12:00,41.0,30.0,30.20,NE,46,1.0,-999.0,65,-99.99,,,-99.99,,2013-01-15 02:12:00,
2013-01-14 21:23:00,40.0,31.0,30.21,North,11,0.0,-999.0,71,-99.99,,,-99.99,,2013-01-15 02:23:00,
2013-01-14 21:33:00,40.0,33.0,30.21,WNW,293,0.0,-999.0,77,-99.99,,,-99.99,,2013-01-15 02:33:00,
2013-01-14 21:42:00,40.0,33.0,30.21,WNW,293,0.0,-999.0,77,-99.99,,,-99.99,,2013-01-15 02:42:00,
2013-01-14 21:52:00,38.0,33.0,30.22,NNE,28,0.0,-999.0,81,-99.99,,,-99.99,,2013-01-15 02:52:00,
2013-01-14 22:03:00,37.0,33.0,30.22,North,360,0.0,-999.0,84,-99.99,,,-99.99,,2013-01-15 03:03:00,
2013-01-14 22:12:00,37.0,33.0,30.22,North,360,0.0,-999.0,84,-99.99,,,-99.99,,2013-01-15 03:12:00,
2013-01-14 22:22:00,37.0,33.0,30.21,North,349,0.0,-999.0,86,-99.99,,,-99.99,,2013-01-15 03:22:00,
2013-01-14 22:33:00,36.0,32.0,30.21,NNW,340,0.0,-999.0,86,-99.99,,,-99.99,,2013-01-15 03:33:00,
2013-01-14 22:42:00,36.0,32.0,30.21,NNW,340,0.0,-999.0,86,-99.99,,,-99.99,,2013-01-15 03:42:00,
2013-01-14 22:52:00,36.0,32.0,30.22,North,355,0.0,-999.0,86,-99.99,,,-99.99,,2013-01-15 03:52:00,
2013-01-14 23:03:00,36.0,33.0,30.22,North,355,0.0,-999.0,87,-99.99,,,-99.99,,2013-01-15 04:03:00,
2013-01-14 23:12:00,36.0,33.0,30.22,North,355,0.0,-999.0,87,-99.99,,,-99.99,,2013-01-15 04:12:00,
2013-01-14 23:22:00,36.0,33.0,30.22,NW,319,0.0,-999.0,88,-99.99,,,-99.99,,2013-01-15 04:22:00,
2013-01-14 23:32:00,35.0,31.0,30.23,North,350,2.0,-999.0,85,-99.99,,,-99.99,,2013-01-15 04:32:00,
2013-01-14 23:42:00,35.0,31.0,30.23,North,350,2.0,-999.0,85,-99.99,,,-99.99,,2013-01-15 04:42:00,
2013-01-14 23:52:00,36.0,31.0,30.23,North,355,1.0,-999.0,83,-99.99,,,-99.99,,2013-01-15 04:52:00,